Location: Bald Rock
(37.3738°N, 119.9354°W)
Time: 22:54:34
(UTC+00:00)

Cosmos 1833 - Pass Details

Date: 08 September 2024
Orbit: 830 x 868 km, 70.9° (Epoch: 12 October)

Event Time Altitude Azimuth Distance (km) Brightness Sun altitude
Exits shadow 12:10:54 16° 203° (SSW) 2,064 5.8 -17.3°
Maximum altitude 12:15:30 86° 291° (WNW) 855 4.1 -16.4°
Drops below altitude 10° 12:21:15 10° 21° (NNE) 2,491 7.2 -15.4°
Sets 12:23:43 0° 22° (NNE) 3,437 8.0 -14.9°
